Regional Weather Roundup
Issued by NWS

Home | Current Version | Previous Version | Text Only | Print | Product List | Glossary Off
Versions: 1 2 3 4 5 6 7 8 9 10 11 12 13 14 15 16 17 18 19 20 21 22 23 24 25 26 27 28 29 30 31 32 33 34 35 36 37 38 39 40 41 42 43 44 45 46 47 48 49 50

000
ASUS43 KLOT 072003
RWRIL

ILLINOIS REGIONAL WEATHER ROUNDUP
NATIONAL WEATHER SERVICE CHICAGO/ROMEOVILLE IL
200 PM CST SUN FEB 07 2016

NOTE: "FAIR" INDICATES FEW OR NO CLOUDS BELOW 12,000 FEET WITH NO
SIGNIFICANT WEATHER AND/OR OBSTRUCTIONS TO VISIBILITY.

* THESE STATIONS ARE NOT UNDER NWS QUALITY CONTROL. THEY ALSO MAY NOT
  REPORT WEATHER SUCH AS PRECIPITATION OR FOG.

ILZ001-002-007-009-015-016-024-072100-
NORTHWEST ILLINOIS

CITY           SKY/WX    TMP DP  RH WIND       PRES   REMARKS
MOLINE         SUNNY     47  27  45 NW23G30   29.77F
STERLING*      SUNNY     46  34  61 W20       29.73S
$$

ILZ003-004-008-010-011-017-018-072100-
NORTH CENTRAL ILLINOIS

CITY           SKY/WX    TMP DP  RH WIND       PRES   REMARKS
ROCKFORD       MOSUNNY   45  32  60 W16       29.73S
FREEPORT*      SUNNY     42  30  63 W14       29.73F
DE KALB*       PTSUNNY   41  33  75 SW14G20   29.72F
$$

ILZ005-006-012>014-019>023-072100-
NORTHEAST ILLINOIS

CITY           SKY/WX    TMP DP  RH WIND       PRES   REMARKS
CHICAGO-OHARE  CLOUDY    42  31  64 W16G28    29.72S
CHICAGO-MIDWAY CLOUDY    46  31  55 W22G28    29.73F
AURORA         MOSUNNY   42  32  67 SW13      29.74F
LANSING*       CLOUDY    45  32  61 SW20G30   29.75S
WAUKEGAN       MOSUNNY   40  31  70 SW16G24   29.69S
DUPAGE AIRPORT CLOUDY    41  30  65 SW20      29.72F
WHEELING       CLOUDY    42  31  64 SW15G21   29.72F
NORTHERLY ISL    N/A     44  30  58 SW12        N/A
$$

LMZ740>746-072100-
SOUTHERN LAKE MICHIGAN

STATION/POSITION SKY/WX   TEMP    WIND        PRES    VSBY  WAVE
                          AIR SEA DIR/SP/G                  HT/PER
                          (F)     (DEG/KT/KT) (MB)    (MI)  (FT/S)
HARRISON CRIB              44     220/ 18/ 22   N/A
BURNHAM HARBOR             44     230/  9/ 19   N/A
CALUMET HARBOR             44     210/ 15/ 22 1006.3F
BURNS HARBOR               45     220/ 17/ 24 1007.8F
MICHIGAN CITY              44     180/ 23/ 26   N/A
$$

ILZ025>027-034>036-040-047-049-050-058-095>099-072100-
WEST-CENTRAL ILLINOIS

CITY           SKY/WX    TMP DP  RH WIND       PRES   REMARKS
QUINCY         SUNNY     49  30  48 W15       29.86F
MACOMB*        SUNNY     48  32  54 W21       29.84F
$$

ILZ028>032-037-038-041>044-048-051>054-059>061-072100-
CENTRAL ILLINOIS

CITY           SKY/WX    TMP DP  RH WIND       PRES   REMARKS
BLOOMINGTON    CLOUDY    46  33  60 SW22G28   29.80F
DECATUR        MOSUNNY   50  32  50 W16       29.83F
PEORIA         PTSUNNY   46  30  53 W10G21    29.80F
LINCOLN*       MOSUNNY   47  33  59 W8        29.83F
SPRINGFIELD    CLOUDY    48  33  56 W21       29.85F
TAYLORVILLE    NOT AVBL
$$

ILZ033-039-045-046-055>057-062-063-072100-
EAST-CENTRAL ILLINOIS

CITY           SKY/WX    TMP DP  RH WIND       PRES   REMARKS
CHAMPAIGN      SUNNY     48  33  56 SW24G31   29.82F
MATTOON        SUNNY     51  29  42 W13G25    29.84F
$$

ILZ079-100>102-072100-
SOUTHWEST ILLINOIS

CITY           SKY/WX    TMP DP  RH WIND       PRES   REMARKS
BELLEVILLE     PTSUNNY   54  29  38 SW14      29.88F
CAHOKIA*       CLOUDY    53  28  38 W13       29.89F
SPARTA*        MOSUNNY   55  29  35 SW12G21   29.90F
$$

ILZ064>066-069>071-074>076-080>082-084>086-088>090-092>094-072100-
SOUTH-CENTRAL ILLINOIS

CITY           SKY/WX    TMP DP  RH WIND       PRES   REMARKS
CARBONDALE     SUNNY     56  26  31 SW23      29.92F
MT. VERNON     SUNNY     55  32  41 SW22G29   29.90S
CENTRALIA*     PTSUNNY   55  32  42 SW18G29   29.88F
SALEM*         PTSUNNY   56  30  37 W15G30    29.88S
$$

ILZ067-068-072-073-078-083-087-091-072100-
SOUTHEAST ILLINOIS

CITY           SKY/WX    TMP DP  RH WIND       PRES   REMARKS
LAWRENCEVILLE  SUNNY     55  29  36 SW21G32   29.88F
HARRISBURG*    SUNNY     56  30  38 SW20G25   29.92F
ROBINSON*      SUNNY     55  32  41 S20G30    29.87F
CARMI*         SUNNY     55  30  37 SW17G28   29.90F
$$

ABBREVIATIONS USED IN REMARKS
   TC - TEMPERATURE IN CELSIUS
  WCI - WIND CHILL INDEX
   HX - HEAT INDEX
  VSB - VISIBILITY
$$




USA.gov is the U.S. government's official web portal to all federal, state and local government web resources and services.